Hourly Data Report for October 24, 2016

All times are specified in Local Standard Time (LST). Add 1 hour to adjust for Daylight Saving Time where and when it is observed.

PANGNIRTUNG
NUNAVUT

66°08'36.300" N
65°42'40.500" W
22.60 m
2403049
71826
WXP

Download Data

Hourly Data (October 2016)
Hourly Data Report for October 24, 2016
Temp Definition
°C
Dew Point Temp Definition
°C
Rel Hum Definition
%
Wind Dir Definition
10's deg

Wind Spd Definition
km/h
Visibility Definition
km
Stn Press Definition
kPa
Hmdx Definition


Wind Chill Definition


Weather Definition


TIME
00:00 -10.0 -15.7 63 12 10   102.19   -15 LegendNANA
01:00 -10.5 -17.1 59 8 4   102.11   -13 LegendNANA
02:00 -9.8 -17.7 53 12 8   102.03   -14 LegendNANA
03:00 -11.6 -17.9 60 22 4   101.96   -14 LegendNANA
04:00 -10.7 -17.6 57 11 12   101.86   -17 LegendNANA
05:00 -9.8 -17.4 54 12 10   101.82   -15 LegendNANA
06:00 -10.1 -16.1 61 12 10   101.79   -15 LegendNANA
07:00 -10.4 -16.8 59 10 8   101.77   -15 LegendNANA
08:00 -9.5 -16.4 57 11 11   101.72   -15 LegendNANA
09:00 -10.3 -16.7 60 11 18   101.66   -18 LegendNANA
10:00 -9.9 -16.9 56 10 3   101.61   -12 LegendNANA
11:00 -9.6 -15.1 64 22 5   101.54   -12 LegendNANA
12:00 -9.5 -15.1 64 24 4   101.49   -12 LegendNANA
13:00 -9.1 -13.7 69 26 2   101.46   -10 LegendNANA
14:00 -8.6 -13.1 70 24 3   101.38   -10 LegendNANA
15:00 -8.7 -13.6 68 22 4   101.33   -11 LegendNANA
16:00 -9.5 -14.3 68 33 7   101.30   -13 LegendNANA
17:00 -9.6 -14.5 68 25 2   101.27   -11 LegendNANA
18:00 -9.7 -14.3 70 24 5   101.23   -13 LegendNANA
19:00 -10.0 -15.3 65 21 4   101.22   -12 LegendNANA
20:00 -9.1 -14.6 64 12 9   101.19   -14 LegendNANA
21:00 -9.2 -14.7 64 12 10   101.17   -14 LegendNANA
22:00 -10.7 -14.3 75 14 4   101.14   -13 LegendNANA
23:00 -9.9 -13.3 76 25 3   101.14   -12 LegendNANA

Notes on Data Quality.

Legend

  • E = Estimated
  • M = Missing
  • NA = Not Available
  • ‡ = Partner data that is not subject to review by the National Climate Archives
Date modified: